Location: Winthrop
(48.4780°N, 120.1850°W)
Time: 01:18:21
(UTC-07:00)

Oscar 19 - Visible Passes

Search period start: 16 May 2022 00:00
Search period end: 26 May 2022 00:00
Orbit: 774 x 789 km, 98.8° (Epoch: 15 May)

Date Brightness Start Highest point End Pass type
(mag) Time Alt. Az. Time Alt. Az. Time Alt. Az.
16 May 13.1 03:13:23 10° NE 03:16:38 16° E 03:19:52 10° SE visible
17 May 11.2 04:19:20 10° NNE 04:24:29 59° ESE 04:29:35 10° S visible
18 May 12.2 03:47:39 10° NNE 03:52:18 32° E 03:56:53 10° SSE visible
19 May 13.1 03:16:31 10° NE 03:19:57 17° E 03:23:20 10° SE visible
20 May 11.2 04:22:35 10° NNE 04:27:46 62° ESE 04:32:52 10° S visible
21 May 12.2 03:50:53 10° NNE 03:55:35 33° E 04:00:14 10° SSE visible
22 May 13.0 03:19:41 10° NE 03:23:15 18° E 03:26:47 10° SE visible
23 May 11.1 04:25:51 10° NNE 04:31:02 66° ESE 04:36:10 10° S visible
24 May 12.1 03:54:07 10° NNE 03:58:52 35° E 04:03:34 10° SSE visible
25 May 12.9 03:22:50 10° NE 03:26:33 19° E 03:30:13 10° SE visible
